Weather reports worldwide

Advertisment
Jersey Airport, United Kingdom (3895): temperature & dewpoint: 02.08.2020 04:00:00 - 08.08.2020 04:00:00 (BST)Jersey Airport, United Kingdom (3895): temperature -20cm & temperature -100cm: 02.08.2020 04:00:00 - 08.08.2020 04:00:00 (BST)Jersey Airport, United Kingdom (3895): wind speed: 02.08.2020 04:00:00 - 08.08.2020 04:00:00 (BST)Jersey Airport, United Kingdom (3895): wind direction: 02.08.2020 04:00:00 - 08.08.2020 04:00:00 (BST)Jersey Airport, United Kingdom (3895): reduced air pressure: 02.08.2020 04:00:00 - 08.08.2020 04:00:00 (BST)Jersey Airport, United Kingdom (3895): visibility: 02.08.2020 04:00:00 - 08.08.2020 04:00:00 (BST)Jersey Airport, United Kingdom (3895): sunshine duration: 02.08.2020 04:00:00 - 08.08.2020 04:00:00 (BST)Jersey Airport, United Kingdom (3895): precipitation: 02.08.2020 04:00:00 - 08.08.2020 04:00:00 (BST)
Date & Time tt [°C] td [°C] tt -20cm [°C] tt -100cm [°C] ff [km/h] ff [kn] dd ppp [hPa] vv [km] sd [min] rr [mm]
08.08.2020 04:00:00 19,0 15,0 - - 22 12 NNE - 10 - -
08.08.2020 03:00:00 19,8 14,5 - - 18 10 NNE 1016,9 10 0 0,0
08.08.2020 02:00:00 19,3 14,8 - - 24 13 NNE 1017,0 10 0 0,0
08.08.2020 01:00:00 19,2 15,2 - - 15 8 N 1017,8 10 - 0,0
08.08.2020 00:00:00 19,7 15,1 - - 15 8 N 1017,8 10 0 0,0
07.08.2020 23:00:00 19,4 15,6 - - 13 7 NW 1017,7 16 0 0,0
07.08.2020 22:00:00 19,0 16,3 - - 11 6 WNW 1017,5 10 0 0,0
07.08.2020 21:00:00 22,6 15,4 - - 8 4 NNW 1016,3 10 0 0,0
07.08.2020 20:00:00 22,4 16,0 - - 16 9 NNE 1015,9 45 0 0,0
07.08.2020 19:00:00 24,1 14,6 - - 13 7 NNE 1015,6 10 36 0,0
07.08.2020 18:00:00 30,9 12,8 - - 9 5 ENE 1015,5 10 18 0,0
07.08.2020 17:00:00 29,2 12,3 - - 9 5 NE 1015,6 10 30 0,0
07.08.2020 16:00:00 29,4 12,8 - - 15 8 N 1015,8 10 54 0,0
07.08.2020 15:00:00 28,9 16,4 - - 9 5 NE 1016,0 50 18 0,0
07.08.2020 14:00:00 32,1 11,4 - - 5 3 E 1016,1 30 18 0,0
07.08.2020 13:00:00 27,3 14,3 - - 5 3 WSW 1016,7 10 0 0,0
07.08.2020 12:00:00 28,8 11,3 - - 9 5 SSE 1016,5 10 36 0,0
07.08.2020 11:00:00 28,7 11,6 - - 16 9 SE 1016,4 10 60 0,0
07.08.2020 10:00:00 27,2 12,0 19,2 17,2 11 6 SSE 1016,7 10 60 0,0
07.08.2020 09:00:00 25,6 12,8 - - 16 9 ESE 1016,4 50 60 0,0
07.08.2020 08:00:00 24,0 12,7 - - 18 10 ESE 1016,2 10 60 0,0
07.08.2020 07:00:00 21,8 11,3 - - 21 11 ESE 1016,3 10 30 0,0
07.08.2020 06:00:00 21,4 10,2 - - 24 13 E 1016,2 10 0 0,0
07.08.2020 05:00:00 21,6 10,8 - - 21 11 ENE 1016,2 50 0 0,0
07.08.2020 04:00:00 18,5 11,0 - - 15 8 E 1016,7 50 0 0,0
07.08.2020 03:00:00 19,5 12,6 - - 16 9 E 1016,9 10 0 0,0
07.08.2020 02:00:00 18,2 12,6 - - 18 10 E 1017,1 10 0 0,0
07.08.2020 01:00:00 18,8 13,0 - - 16 9 E 1017,4 10 - 0,0
07.08.2020 00:00:00 19,6 13,3 - - 18 10 E 1017,5 50 0 0,0
06.08.2020 23:00:00 20,5 13,5 - - 18 10 ENE 1017,5 50 0 0,0
06.08.2020 22:00:00 20,5 13,9 - - 15 8 E 1017,3 10 0 0,0
06.08.2020 21:00:00 20,8 14,3 - - 16 9 NNE 1016,7 10 24 0,0
06.08.2020 20:00:00 22,3 13,8 - - 13 7 NNE 1016,6 10 60 0,0
06.08.2020 19:00:00 23,8 15,2 - - 15 8 NNE 1016,5 10 60 0,0
06.08.2020 18:00:00 25,1 16,7 - - 13 7 NNE 1016,6 10 60 0,0
06.08.2020 17:00:00 27,0 15,4 - - 2 1 - 1016,7 10 60 0,0
06.08.2020 16:00:00 27,2 12,5 - - 8 4 W 1016,8 35 60 0,0
06.08.2020 15:00:00 26,9 14,5 - - 5 3 - 1017,0 10 60 0,0
06.08.2020 14:00:00 25,4 12,8 - - 13 7 SSW 1017,1 10 60 0,0
06.08.2020 13:00:00 24,7 14,1 - - 13 7 S 1017,2 45 60 0,0
06.08.2020 12:00:00 22,9 15,1 - - 15 8 S 1017,5 10 60 0,0
06.08.2020 11:00:00 22,7 16,5 - - 16 9 SSE 1017,2 10 60 0,0
06.08.2020 10:00:00 22,5 16,8 19,0 17,2 11 6 S 1017,1 10 60 0,0
06.08.2020 09:00:00 20,7 17,7 - - 8 4 SSE 1017,1 10 60 0,0
06.08.2020 08:00:00 18,7 17,1 - - 9 5 S 1017,1 10 60 0,0
06.08.2020 07:00:00 17,2 16,7 - - 11 6 SSE 1016,5 10 18 0,0
06.08.2020 06:00:00 15,6 15,0 - - 11 6 SE 1016,3 20 0 0,0
06.08.2020 05:00:00 15,8 14,9 - - 5 3 E 1016,3 10 0 0,0
06.08.2020 04:00:00 15,8 14,3 - - 4 2 - 1016,0 10 0 0,0
06.08.2020 03:00:00 17,3 15,5 - - 9 5 S 1015,9 50 0 0,0
06.08.2020 02:00:00 17,0 15,5 - - 8 4 SSE 1016,0 10 0 0,0
06.08.2020 01:00:00 16,6 14,3 - - 8 4 SE 1016,1 10 - 0,0
06.08.2020 00:00:00 17,9 15,4 - - 4 2 W 1015,8 10 0 0,0
05.08.2020 23:00:00 17,7 14,7 - - 8 4 WNW 1015,8 30 0 0,0
05.08.2020 22:00:00 18,2 14,5 - - 5 3 W 1015,4 10 0 0,0
05.08.2020 21:00:00 19,6 14,6 - - 5 3 WNW 1015,1 10 12 0,0
05.08.2020 20:00:00 21,1 14,3 - - 9 5 W 1014,5 10 60 0,0
05.08.2020 19:00:00 22,0 14,2 - - 13 7 W 1014,2 10 60 0,0
05.08.2020 18:00:00 23,0 14,8 - - 9 5 W 1014,1 40 60 0,0
05.08.2020 17:00:00 24,2 14,9 - - 21 11 S 1013,8 10 54 0,0
05.08.2020 16:00:00 25,0 15,2 - - 16 9 S 1013,9 10 60 0,0
05.08.2020 15:00:00 23,8 15,1 - - 24 13 S 1014,0 40 60 0,0
05.08.2020 14:00:00 22,7 14,9 - - 26 14 S 1014,3 35 60 0,0
05.08.2020 13:00:00 21,8 15,1 - - 22 12 S 1014,6 10 60 0,0
05.08.2020 12:00:00 20,1 14,3 - - 26 14 SSE 1014,7 50 60 0,0
05.08.2020 11:00:00 19,0 14,3 - - 21 11 S 1014,8 10 60 0,0
05.08.2020 10:00:00 18,2 14,7 18,5 17,2 18 10 S 1014,6 10 60 0,0
05.08.2020 09:00:00 16,7 14,7 - - 21 11 S 1015,0 50 42 0,0
05.08.2020 08:00:00 16,8 15,0 - - 18 10 SSW 1014,9 10 60 0,0
05.08.2020 07:00:00 15,7 14,0 - - 13 7 SSW 1014,7 10 36 0,0
05.08.2020 06:00:00 14,6 13,2 - - 13 7 SSW 1014,7 10 0 0,0
05.08.2020 05:00:00 15,2 13,3 - - 13 7 S 1014,6 50 0 0,0
05.08.2020 04:00:00 15,2 13,3 - - 9 5 S 1014,9 10 0 0,0
05.08.2020 03:00:00 14,0 12,2 - - 5 3 S 1015,5 10 0 0,0
05.08.2020 02:00:00 14,6 12,5 - - 9 5 SSW 1016,0 10 0 0,0
05.08.2020 01:00:00 14,7 12,4 - - 8 4 S 1016,1 10 - 0,0
05.08.2020 00:00:00 14,3 11,8 - - 9 5 SSW 1016,4 50 0 0,0
04.08.2020 23:00:00 13,7 11,0 - - 8 4 SW 1016,6 10 0 0,0
04.08.2020 22:00:00 14,5 11,2 - - 8 4 WSW 1016,9 10 0 0,0
04.08.2020 21:00:00 15,4 11,4 - - 9 5 W 1017,0 10 30 0,0
04.08.2020 20:00:00 17,4 11,5 - - 9 5 W 1017,0 10 60 0,0
04.08.2020 19:00:00 18,6 10,5 - - 9 5 WNW 1017,1 50 60 0,0
04.08.2020 18:00:00 19,1 10,6 - - 9 5 W 1017,3 10 60 0,0
04.08.2020 17:00:00 19,9 10,7 - - 9 5 WSW 1017,5 10 60 0,0
04.08.2020 16:00:00 19,6 11,1 - - 11 6 W 1018,0 10 60 0,0
04.08.2020 15:00:00 19,3 10,1 - - 11 6 W 1018,5 10 60 0,0
04.08.2020 14:00:00 19,3 10,3 - - 11 6 W 1019,1 50 60 0,0
04.08.2020 13:00:00 17,8 10,9 - - 18 10 WSW 1019,3 10 54 0,0
04.08.2020 12:00:00 17,0 11,4 - - 15 8 WSW 1019,4 45 42 0,0
04.08.2020 11:00:00 17,6 10,9 - - 15 8 WSW 1019,2 10 60 0,0
04.08.2020 10:00:00 17,3 11,2 18,5 17,2 11 6 W 1019,5 10 60 0,0
04.08.2020 09:00:00 16,6 10,9 - - 9 5 W 1019,3 40 60 0,0
04.08.2020 08:00:00 15,4 11,4 - - 5 3 W 1018,8 50 60 0,0
04.08.2020 07:00:00 13,1 11,9 - - 8 4 NW 1019,0 10 42 0,0
04.08.2020 06:00:00 12,0 10,8 - - 8 4 NNW 1018,8 45 0 0,0
04.08.2020 05:00:00 12,0 10,7 - - 5 3 NW 1018,6 10 0 0,0
04.08.2020 04:00:00 12,2 10,8 - - 9 5 NNW 1018,8 50 0 0,0
04.08.2020 03:00:00 12,3 10,4 - - 11 6 N 1018,8 50 0 0,0
04.08.2020 02:00:00 13,0 11,3 - - 11 6 N 1019,1 50 0 0,0
04.08.2020 01:00:00 13,8 11,3 - - 9 5 WNW 1019,2 10 - 0,0
04.08.2020 00:00:00 14,1 11,4 - - 11 6 WNW 1019,3 50 0 0,0
03.08.2020 23:00:00 14,6 12,3 - - 11 6 WNW 1019,2 50 0 0,0
03.08.2020 22:00:00 14,3 12,1 - - 9 5 WNW 1019,2 10 0 0,0
03.08.2020 21:00:00 15,3 12,6 - - 11 6 WNW 1018,7 10 18 0,0
03.08.2020 20:00:00 16,6 12,6 - - 16 9 WNW 1018,5 50 60 0,0
03.08.2020 19:00:00 17,6 12,7 - - 21 11 WNW 1018,3 10 60 0,0
03.08.2020 18:00:00 17,9 12,5 - - 22 12 WNW 1018,4 10 60 0,0
03.08.2020 17:00:00 18,4 12,2 - - 18 10 W 1018,3 10 60 0,0
03.08.2020 16:00:00 18,6 12,5 - - 21 11 W 1018,2 10 60 0,0
03.08.2020 15:00:00 18,5 12,2 - - 24 13 W 1018,4 10 60 0,0
03.08.2020 14:00:00 18,9 12,5 - - 22 12 WNW 1018,6 40 48 0,0
03.08.2020 13:00:00 17,6 11,9 - - 13 7 NW 1018,7 10 24 0,0
03.08.2020 12:00:00 17,6 12,1 - - 16 9 WNW 1018,6 10 24 0,0
03.08.2020 11:00:00 16,4 11,4 - - 18 10 WNW 1018,6 45 18 0,0
03.08.2020 10:00:00 16,9 12,2 18,7 17,0 15 8 WNW 1018,4 10 36 0,0
03.08.2020 09:00:00 16,3 12,2 - - 15 8 NW 1018,3 45 48 0,0
03.08.2020 08:00:00 15,1 12,2 - - 9 5 NW 1017,9 10 42 0,0
03.08.2020 07:00:00 13,4 11,6 - - 13 7 NW 1017,6 45 6 0,0
03.08.2020 06:00:00 12,8 10,6 - - 13 7 NNW 1017,4 50 0 0,0
03.08.2020 05:00:00 13,9 11,4 - - 9 5 NW 1017,3 10 0 0,0
03.08.2020 04:00:00 14,8 12,1 - - 11 6 NW 1017,5 10 0 0,0
03.08.2020 03:00:00 14,9 11,8 - - 11 6 NW 1017,6 10 0 0,0
03.08.2020 02:00:00 15,3 12,0 - - 16 9 WNW 1018,1 10 0 0,0
03.08.2020 01:00:00 15,2 12,2 - - 15 8 WNW 1018,2 10 - 0,0
03.08.2020 00:00:00 15,3 12,3 - - 18 10 WNW 1018,3 40 0 0,0
02.08.2020 23:00:00 15,3 11,5 - - 18 10 WNW 1018,4 10 0 0,0
02.08.2020 22:00:00 15,5 13,5 - - 16 9 W 1018,4 10 0 0,0
02.08.2020 21:00:00 15,8 13,9 - - 18 10 WNW 1018,4 35 0 0,0
02.08.2020 20:00:00 16,0 13,6 - - 28 15 W 1018,5 10 6 0,0
02.08.2020 19:00:00 16,5 13,3 - - 24 13 W 1018,6 40 0 0,0
02.08.2020 18:00:00 17,4 14,1 - - 18 10 WNW 1018,9 10 6 0,0
02.08.2020 17:00:00 18,2 14,2 - - 21 11 W 1019,1 10 30 0,0
02.08.2020 16:00:00 18,7 13,1 - - 21 11 W 1019,3 10 60 0,0
02.08.2020 15:00:00 19,1 13,5 - - 26 14 W 1019,6 10 36 0,0
02.08.2020 14:00:00 18,7 13,2 - - 22 12 W 1019,9 10 54 0,0
02.08.2020 13:00:00 18,8 13,2 - - 24 13 W 1020,0 10 54 0,0
02.08.2020 12:00:00 19,1 14,3 - - 22 12 W 1020,2 10 54 0,0
02.08.2020 11:00:00 17,7 12,9 - - 28 15 W 1020,3 10 42 0,0
02.08.2020 10:00:00 18,1 13,4 18,7 17,0 18 10 W 1020,3 35 30 0,0
02.08.2020 09:00:00 17,2 13,3 - - 18 10 W 1020,3 10 6 0,0
02.08.2020 08:00:00 16,6 13,2 - - 9 5 W 1020,1 45 0 0,0
02.08.2020 07:00:00 16,0 12,6 - - 9 5 WNW 1019,8 10 12 0,0
02.08.2020 06:00:00 15,8 11,6 - - 13 7 WNW 1019,7 10 0 0,0
02.08.2020 05:00:00 15,8 12,0 - - 13 7 WNW 1019,6 10 0 0,0
02.08.2020 04:00:00 15,8 10,6 - - 13 7 WNW 1019,5 10 0 0,0

tt = temperature
td = dewpoint
tt -20cm = temperature -20cm
tt -100cm = temperature -100cm
ff = wind speed
dd = wind direction
ppp = reduced air pressure
vv = visibility
sd = sunshine duration
rr = precipitation

Next stations